Home > Weather > Bad Homburg > Past weeks

Flag for Germany Past Weather in Bad Homburg, Hesse, Germany — Yesterday and Last 2 Weeks

Now
91 °F

Sunny.


Feels Like: 92 °F
Forecast: 66 / 91 °F
Wind: 3 mph from North

Location: Frankfurt-M-Flughafen Airport

Current Time: Aug 26, 2016 at 4:04:55 PM

Latest Report: Aug 26, 2016 at 3:20 PM


Visibility: 10 mi

Pressure: 30.04 "Hg

Humidity: 38%

Dew Point: 63 °F

Location of Bad HomburgLocation

Past Weather in Bad Homburg — Graph

°F

Bad Homburg Temperature Yesterday

Maximum temperature yesterday: 91 °F (at 4:50 PM)
Minimum temperature yesterday: 63 °F (at 5:20 AM)
Average temperature yesterday: 77 °F

High & Low Weather Summary for the Past Weeks

 TemperatureHumidityPressure
High91 °F (Aug 25, 4:50 PM)100% (Aug 12, 6:20 AM)30.39 "Hg (Aug 12, 6:20 AM)
Low52 °F (Aug 23, 6:20 AM)29% (Aug 25, 6:20 PM)29.80 "Hg (Aug 18, 1:50 PM)
Average68 °F67%30.10 "Hg
* Reported Aug 11 2:20 PM — Aug 26 2:50 PM, Bad Homburg, Weather by CustomWeather, © 2016

Note: Actual official high and low records may vary slightly from our data, if they occured in-between our weather recording intervals... More about our weather records

Advertising

Bad Homburg Weather History for the Previous 24 Hours

Scroll right to see more
 ConditionsComfort  
Time TempWeatherWind HumidityBarometerVisibility
2:50 PM
Fri, Aug 26
91 °FSunny.3 mph38%30.04 "Hg10 mi
2:20 PM88 °FSunny.5 mph40%30.04 "Hg10 mi
1:50 PM88 °FSunny.5 mph43%30.04 "Hg10 mi
1:20 PM86 °FPassing clouds.5 mph43%30.04 "HgN/A
12:50 PM84 °FPassing clouds.5 mph45%30.04 "HgN/A
12:20 PM82 °FPassing clouds.6 mph48%30.04 "HgN/A
11:50 AM82 °FPassing clouds.6 mph45%30.04 "HgN/A
11:20 AM81 °FPassing clouds.5 mph45%30.04 "HgN/A
10:50 AM79 °FPassing clouds.5 mph45%30.04 "HgN/A
10:20 AM77 °FSunny.1 mph47%30.04 "Hg10 mi
9:50 AM75 °FPassing clouds.3 mph50%30.04 "HgN/A
9:20 AM73 °FSunny.2 mph53%30.04 "Hg10 mi
8:50 AM72 °FPassing clouds.5 mph53%30.04 "HgN/A
8:20 AM70 °FSunny.6 mph60%30.04 "Hg10 mi
7:50 AM66 °FPassing clouds.3 mph68%30.04 "HgN/A
7:20 AM66 °FClear.6 mph68%30.04 "Hg10 mi
6:50 AM63 °FClear.3 mph77%30.04 "Hg10 mi
6:20 AM63 °FClear.7 mph77%30.04 "Hg10 mi
5:50 AM63 °FClear.5 mph77%30.01 "Hg10 mi
5:20 AM66 °FClear.6 mph68%30.01 "Hg10 mi
4:50 AM66 °FClear.6 mph68%30.01 "Hg10 mi
4:20 AM64 °FClear.7 mph73%30.01 "Hg10 mi
3:50 AM64 °FClear.7 mph78%30.01 "Hg10 mi
3:20 AM63 °FFog.2 mph83%30.01 "HgN/A
2:50 AM63 °FFog.3 mph83%30.01 "HgN/A
2:20 AM64 °FClear.6 mph78%30.01 "Hg10 mi
1:50 AM66 °FPassing clouds.3 mph73%30.01 "HgN/A
1:20 AM64 °FPassing clouds.3 mph83%30.01 "HgN/A
12:50 AM66 °FClear.6 mph78%30.01 "Hg10 mi
12:20 AM66 °FClear.9 mph78%30.01 "Hg10 mi
11:50 PM
Thu, Aug 25
68 °FClear.9 mph73%30.01 "Hg10 mi
11:20 PM73 °FClear.5 mph57%30.01 "Hg10 mi
10:50 PM70 °FPassing clouds.5 mph69%30.01 "HgN/A
10:20 PM73 °FClear.5 mph61%30.01 "Hg10 mi
9:50 PM73 °FClear.5 mph61%30.01 "Hg10 mi
9:20 PM79 °FSunny.6 mph48%30.01 "Hg10 mi
8:50 PM82 °FSunny.7 mph42%29.98 "Hg10 mi
8:20 PM84 °FSunny.7 mph37%29.98 "Hg10 mi
7:50 PM88 °FSunny.7 mph31%29.98 "Hg10 mi
7:20 PM90 °FPassing clouds.10 mph29%29.98 "HgN/A
6:50 PM90 °FSunny.9 mph29%29.98 "Hg10 mi
6:20 PM90 °FSunny.9 mph29%29.98 "Hg10 mi
5:50 PM91 °FSunny.10 mph30%29.98 "Hg10 mi
5:20 PM91 °FPassing clouds.9 mph30%30.01 "HgN/A
4:50 PM91 °FPassing clouds.10 mph30%30.01 "HgN/A
4:20 PM90 °FPassing clouds.9 mph33%30.01 "HgN/A
Weather by CustomWeather, © 2016

See weather overviewHow to use our weather pages